Regional Weather Roundup
Issued by NWS

Home | Current Version | Previous Version | Graphics & Text | Print | Product List | Glossary On
Versions: 1 2 3 4 5 6 7 8 9 10 11 12 13 14 15 16 17 18 19 20 21 22 23 24 25 26 27 28 29 30 31 32 33 34 35 36 37 38 39 40 41 42 43 44 45 46 47 48 49 50
000
ASUS43 KOAX 220410
RWRNE

WEATHER ROUNDUP FOR NEBRASKA
NATIONAL WEATHER SERVICE OMAHA NE
1000 PM CST TUE NOV 21 2017

NOTES: SATELLITE DATA IS BEING USED TO AUGMENT CLOUD COVER ABOVE
       12000 FEET.
       "FAIR" INDICATES FEW OR NO CLOUDS BELOW 12,000 FEET WITH NO
       SIGNIFICANT WEATHER AND/OR OBSTRUCTIONS TO VISIBILITY.


NEZ001>004-019>022-054>056-220500-
NEBRASKA PANHANDLE

CITY           SKY/WX    TMP DP  RH WIND       PRES   REMARKS
SCOTTSBLUFF    CLOUDY    30  22  72 E9        30.23F WCI  22
ALLIANCE       CLOUDY    24  23  96 S8        30.24F WCI  15
CHADRON        CLOUDY    23  20  88 CALM      30.23F
GORDON         FAIR      23  18  81 CALM      30.23F
KIMBALL        CLOUDY    31  30  94 SW9       30.25F WCI  23
SIDNEY         CLOUDY    29  24  82 SW12      30.27S WCI  19
$$

NEZ057>060-069>072-079>082-220500-
SOUTHWEST NEBRASKA

CITY           SKY/WX    TMP DP  RH WIND       PRES   REMARKS
NORTH PLATTE   CLEAR     21  13  71 CALM      30.34R
IMPERIAL       CLOUDY    27  21  78 S3        30.32R
LEXINGTON      CLOUDY    23  14  68 CALM      30.36F
MCCOOK         CLOUDY    24  15  68 CALM      30.36S
OGALLALA       CLOUDY    27  22  82 CALM      30.31S
$$

NEZ005>010-023>029-035>040-094-220500-
NORTH CENTRAL NEBRASKA

CITY           SKY/WX    TMP DP  RH WIND       PRES   REMARKS
VALENTINE      CLEAR     16  11  80 CALM      30.30S
AINSWORTH      CLOUDY    14  10  83 S5        30.31R WCI   7
BROKEN BOW     CLEAR     17  10  74 CALM      30.33F
O`NEILL        CLEAR     12  10  90 CALM      30.35F
ORD            CLEAR     13   8  81 CALM      30.35F
THEDFORD       CLOUDY    19  13  77 CALM      30.32R
$$

NEZ041-046>049-061>064-073>077-083>087-220500-
SOUTH CENTRAL NEBRASKA

CITY           SKY/WX    TMP DP  RH WIND       PRES   REMARKS
GRAND ISLAND   CLOUDY    17  11  77 NW6       30.41R WCI   9
AURORA         CLOUDY    16   9  75 N6        30.39S WCI   7
HASTINGS       CLOUDY    13   6  74 W3        30.41R
HEBRON         CLOUDY    23  13  65 NW3       30.42S
HOLDREGE       CLOUDY    20  10  66 CALM      30.38R
KEARNEY        CLEAR     19  10  68 NE3       30.38S
YORK           CLOUDY    19  14  79 N5        30.41R WCI  13
$$

NEZ011>018-030>034-042>045-220500-
NORTHEAST NEBRASKA

CITY           SKY/WX    TMP DP  RH WIND       PRES   REMARKS
NORFOLK        CLOUDY    17  12  80 W8        30.39R WCI   7
ALBION         CLOUDY    13   9  84 CALM      30.39S
BLAIR          CLOUDY    23  11  62 NW3       30.38S
COLUMBUS       CLOUDY    18  11  74 W5        30.42R WCI  11
FREMONT        CLOUDY    19  12  73 W3        30.40F
TEKAMAH        CLOUDY    17   8  67 NW3       30.40R
WAYNE          PTCLDY    11   7  82 S3        30.40R
$$

NEZ050>053-065>068-078-088>093-220500-
SOUTHEAST NEBRASKA

CITY           SKY/WX    TMP DP  RH WIND       PRES   REMARKS
LINCOLN        CLOUDY    22  12  65 MISG      30.43R
OMAHA EPPLEY   CLOUDY    22  11  62 CALM      30.41S
BEATRICE       CLOUDY    18  13  79 NW7       30.41S WCI   9
FALLS CITY     CLOUDY    23  13  65 NW6       30.40S WCI  16
NEBRASKA CITY  CLOUDY    24  13  63 N7        30.41R WCI  16
PLATTSMOUTH    CLOUDY    24  13  62 N6        30.40R WCI  17
$$

NEZ044-045-051>053-067-220500-
OMAHA AREA

CITY           SKY/WX    TMP DP  RH WIND       PRES   REMARKS
OMAHA EPPLEY   CLOUDY    22  11  62 CALM      30.41S
BLAIR          CLOUDY    23  11  62 NW3       30.38S
FREMONT        CLOUDY    19  12  73 W3        30.40F
MILLARD        CLOUDY    25  12  58 NW5       30.41R WCI  19
OFFUTT AFB     CLOUDY    24   9  52 CALM      30.40S
PLATTSMOUTH    CLOUDY    24  13  62 N6        30.40R WCI  17
WAHOO          MOCLDY    20  12  71 NW5       30.40F WCI  14
$$




USA.gov is the U.S. government's official web portal to all federal, state and local government web resources and services.